[[{"header":{"parameterUnit":"m.s-1","parameterCategory":1,"la1":30.2991,"la2":30.254,"lo1":-89.0895,"lo2":-89.0444,"dy":0.0017,"dx":0.0017,"nx":28,"ny":28,"refTime":"2024-06-06T03:00:00:Z","depth":0,"parameterNumber":2,"parameterNumberName":"U-component_of_WINDS"},"data":[0,0,0,0,0,0,0,0,0,0,0,0,0,0,0,0,0,0,0,0,0,0,0,0,0,0,0,0,0,0,0,0,0,0,0,0,0,0,0,0,0,0,0,0,0,0,0,0,0,0,0,0,0,0,0,0,0,0,-0.6131,-0.613,0,-0.6019,-0.6018,-0.6016,-0.5976,-0.5977,-0.5977,-0.5978,-0.5861,-0.5858,-0.5854,0,0,0,0,0,0,0,0,0,0,0,0,0,-0.631,-0.6307,-0.6131,-0.613,-0.6128,-0.6019,-0.6018,-0.6016,-0.5976,-0.5977,-0.5977,-0.5978,-0.5862,-0.5858,-0.5854,0,0,0,0,0,0,0,0,0,0,0,0,0,-0.6218,-0.6306,-0.6131,-0.6095,-0.6091,-0.6019,-0.6018,-0.6016,-0.5976,-0.5977,-0.5977,-0.5978,-0.5864,-0.5859,-0.5853,-0.5809,0,0,-0.5838,-0.5835,0,0,0,0,0,0,0,0,-0.6224,-0.6212,-0.6102,-0.6098,-0.6093,-0.6012,-0.6038,-0.5946,-0.5976,-0.602,-0.5978,-0.5978,-0.5911,-0.5902,-0.5879,-0.5804,-0.5799,-0.5837,-0.5834,-0.5832,-0.583,0,0,0,0,0,0,0,-0.623,-0.6216,-0.6087,-0.61,-0.6095,-0.6085,-0.6072,-0.602,-0.5963,-0.6016,-0.6013,-0.6,-0.5908,-0.5885,-0.5876,-0.5797,-0.5837,-0.5833,-0.5829,-0.5827,-0.5681,-0.568,0,0,0,0,0,0,-0.6243,-0.6222,-0.609,-0.6083,-0.6161,-0.6081,-0.6067,-0.6037,-0.5964,-0.5953,-0.6,-0.5999,-0.5893,-0.5883,-0.5872,-0.5816,-0.5832,-0.5827,-0.5824,-0.5682,-0.5681,-0.568,0,0,0,0,0,0,-0.6247,-0.6231,-0.6095,-0.6152,-0.6134,-0.6077,-0.6044,-0.6035,-0.6011,-0.5951,-0.5941,-0.5986,-0.5893,-0.5879,-0.5826,-0.5812,-0.5824,-0.582,-0.5683,-0.5681,-0.568,-0.5704,0,0,0,0,0,0,-0.6252,-0.6233,-0.6215,-0.6152,-0.6131,-0.605,-0.6043,-0.6032,-0.6002,-0.6,-0.5936,-0.5926,-0.5893,-0.5834,-0.582,-0.5805,-0.5816,-0.5684,-0.5682,-0.5681,-0.5704,-0.5703,-0.5703,0,0,0,0,0,-0.6258,-0.6226,-0.6215,-0.6199,-0.6108,-0.6049,-0.6037,-0.6001,-0.6001,-0.5983,-0.5946,-0.5928,-0.5816,-0.5828,-0.5813,-0.5796,-0.5684,-0.5683,-0.5681,-0.5704,-0.5704,-0.5703,0,0,0,0,0,0,-0.6288,-0.6216,-0.6203,-0.6149,-0.6106,-0.6043,-0.6019,-0.6001,-0.5956,-0.5955,-0.5911,-0.5897,-0.5847,-0.5816,-0.5832,-0.575,-0.5749,-0.5744,-0.5772,-0.5771,-0.577,-0.5779,-0.5811,0,0,0,0,0,-0.6288,-0.6247,-0.6187,-0.6145,-0.6124,-0.6075,-0.6048,-0.6024,-0.5977,-0.5958,-0.5916,-0.5871,-0.5826,-0.5796,-0.5751,-0.57,-0.5685,-0.568,-0.568,-0.568,-0.5676,-0.5648,-0.5645,-0.5674,-0.5674,-0.5674,0,0,-0.6288,-0.6244,-0.622,-0.615,-0.6113,-0.6072,-0.606,-0.6016,-0.5985,-0.5951,-0.5898,-0.5866,-0.5813,-0.576,-0.5735,-0.5733,-0.5665,-0.5678,-0.5678,-0.5674,-0.5645,-0.5643,-0.564,-0.5673,-0.5673,-0.5674,0,0,-0.6267,-0.6229,-0.619,-0.6155,-0.61,-0.6068,-0.6059,-0.5999,-0.5977,-0.5923,-0.5898,-0.586,-0.5783,-0.5746,-0.5717,-0.5685,-0.5667,-0.5672,-0.5669,-0.5642,-0.564,-0.5637,-0.5626,-0.5623,-0.5668,-0.5668,-0.5668,0,-0.6273,-0.621,-0.6173,-0.6131,-0.6101,-0.607,-0.6031,-0.5998,-0.5931,-0.5911,-0.591,-0.5813,-0.5775,-0.5714,-0.5707,-0.5684,-0.5673,-0.5678,-0.5643,-0.564,-0.5638,-0.5627,-0.5623,-0.5669,-0.5669,-0.5669,-0.5669,0,-0.6221,-0.6177,-0.6153,-0.6091,-0.6058,-0.6017,-0.5974,-0.5946,-0.5925,-0.5894,-0.584,-0.5794,-0.5739,-0.5723,-0.5702,-0.566,-0.566,-0.5652,-0.565,-0.5637,-0.5625,-0.5621,-0.567,-0.567,-0.567,-0.567,0,0,-0.6213,-0.6132,-0.6124,-0.6096,-0.6035,-0.6,-0.5959,-0.5907,-0.5884,-0.5839,-0.5804,-0.574,-0.5733,-0.57,-0.5675,-0.5651,-0.5629,-0.5645,-0.5644,-0.5644,-0.5581,-0.5588,-0.5583,-0.5618,-0.5617,-0.5616,-0.5586,0,-0.6184,-0.6109,-0.6075,-0.6016,-0.5976,-0.5947,-0.5912,-0.587,-0.5841,-0.5802,-0.5769,-0.5725,-0.5718,-0.5698,-0.5674,-0.5637,-0.5616,-0.5639,-0.5584,-0.5583,-0.5598,-0.5577,-0.5584,-0.5557,-0.5581,-0.558,-0.558,0,-0.6139,-0.6096,-0.6033,-0.5978,-0.596,-0.5928,-0.5878,-0.5842,-0.5795,-0.5775,-0.5741,-0.5717,-0.5673,-0.5675,-0.5614,-0.5631,-0.5607,-0.5586,-0.5584,-0.5577,-0.558,-0.557,-0.5547,-0.5544,-0.5572,-0.5573,-0.5573,0,-0.614,-0.6066,-0.6019,-0.5996,-0.5931,-0.5909,-0.5881,-0.5835,-0.5806,-0.5763,-0.5744,-0.5696,-0.567,-0.5633,-0.5597,-0.5602,-0.5541,-0.5539,-0.5523,-0.5524,-0.551,-0.5512,-0.5484,-0.5495,-0.5495,-0.5496,-0.5496,0,-0.611,-0.6073,-0.6019,-0.599,-0.5948,-0.591,-0.5869,-0.5839,-0.5798,-0.5763,-0.5736,-0.5703,-0.5658,-0.562,-0.5592,-0.5546,-0.5534,-0.5517,-0.551,-0.5519,-0.5522,-0.5503,-0.5503,-0.5494,-0.5495,-0.5495,-0.5495,0,-0.6104,-0.6066,-0.6013,-0.5957,-0.5942,-0.5913,-0.5864,-0.5835,-0.5805,-0.5761,-0.5749,-0.5701,-0.5655,-0.5616,-0.5555,-0.5536,-0.549,-0.5481,-0.5506,-0.5502,-0.5488,-0.549,-0.5446,-0.5439,-0.5456,-0.5456,-0.5456,0,-0.6087,-0.6058,-0.5999,-0.5974,-0.5946,-0.5906,-0.5877,-0.584,-0.5811,-0.5757,-0.5734,-0.5687,-0.5647,-0.5575,-0.5535,-0.5489,-0.5479,-0.5467,-0.5471,-0.5482,-0.5479,-0.5481,-0.5478,-0.5466,-0.5466,-0.5466,-0.5466,0,-0.6062,-0.6046,-0.6005,-0.5959,-0.5926,-0.5887,-0.5848,-0.5829,-0.5785,-0.5754,-0.5707,-0.5676,-0.5615,-0.5569,-0.5519,-0.5489,-0.5471,-0.5466,-0.5459,-0.5468,-0.5484,-0.5476,-0.5505,-0.5466,-0.5466,-0.5466,-0.5466,-0.5466,-0.605,-0.6023,-0.5978,-0.5935,-0.5902,-0.5866,-0.5837,-0.5804,-0.5764,-0.5712,-0.5693,-0.5645,-0.56,-0.5532,-0.5503,-0.5465,-0.5462,-0.5453,-0.5451,-0.5449,-0.5451,-0.5491,-0.5456,-0.5456,-0.5456,-0.5456,-0.5456,0,-0.6024,-0.5994,-0.5954,-0.5901,-0.5867,-0.5854,-0.581,-0.5783,-0.5742,-0.5702,-0.5664,-0.5611,-0.5566,-0.5524,-0.5477,-0.5455,-0.5445,-0.5444,-0.5445,-0.5439,-0.5456,-0.5466,-0.5453,-0.5453,-0.5453,-0.5453,-0.5453,-0.5453,-0.6006,-0.596,-0.5939,-0.5877,-0.5847,-0.5801,-0.5778,-0.5745,-0.5713,-0.5656,-0.5619,-0.5592,-0.5551,-0.5501,-0.546,-0.5449,-0.5433,-0.5434,-0.542,-0.5437,-0.5437,-0.5438,-0.5447,-0.5431,-0.5431,-0.5406,-0.5406,-0.5406]},{"header":{"parameterUnit":"m.s-1","parameterCategory":1,"la1":30.2991,"la2":30.254,"lo1":-89.0895,"lo2":-89.0444,"dy":0.0017,"dx":0.0017,"nx":28,"ny":28,"refTime":"2024-06-06T03:00:00:Z","depth":0,"parameterNumber":3,"parameterNumberName":"V-component_of_WINDS"},"data":[0,0,0,0,0,0,0,0,0,0,0,0,0,0,0,0,0,0,0,0,0,0,0,0,0,0,0,0,0,0,0,0,0,0,0,0,0,0,0,0,0,0,0,0,0,0,0,0,0,0,0,0,0,0,0,0,0,0,1.237,1.2369,0,1.2353,1.2353,1.2353,1.2392,1.2394,1.2395,1.2396,1.2376,1.2375,1.2373,0,0,0,0,0,0,0,0,0,0,0,0,0,1.2431,1.243,1.237,1.2369,1.2369,1.2353,1.2353,1.2353,1.2392,1.2394,1.2395,1.2397,1.2377,1.2375,1.2373,0,0,0,0,0,0,0,0,0,0,0,0,0,1.2408,1.2429,1.237,1.2387,1.2388,1.2353,1.2353,1.2353,1.2392,1.2394,1.2396,1.2397,1.2377,1.2375,1.2372,1.2319,0,0,1.2365,1.2364,0,0,0,0,0,0,0,0,1.241,1.2406,1.2385,1.2386,1.2387,1.2377,1.2368,1.2341,1.2391,1.239,1.2396,1.2398,1.2375,1.2372,1.2365,1.2318,1.2317,1.2364,1.2363,1.2362,1.2361,0,0,0,0,0,0,0,1.2411,1.2407,1.2363,1.2384,1.2386,1.2394,1.2393,1.2363,1.2372,1.2391,1.2393,1.2391,1.2376,1.2368,1.2365,1.2317,1.2364,1.2362,1.2361,1.236,1.2223,1.2221,0,0,0,0,0,0,1.2411,1.2408,1.2364,1.2363,1.2403,1.2392,1.239,1.2378,1.2373,1.2374,1.239,1.2393,1.2371,1.2368,1.2364,1.23,1.2362,1.2359,1.2358,1.2226,1.2223,1.2221,0,0,0,0,0,0,1.2412,1.2407,1.2364,1.2386,1.2381,1.2389,1.2375,1.2377,1.2369,1.2372,1.2373,1.238,1.2372,1.2368,1.233,1.23,1.2358,1.2356,1.2228,1.2225,1.2222,1.2171,0,0,0,0,0,0,1.2414,1.2407,1.2387,1.2385,1.238,1.2331,1.2373,1.2375,1.2365,1.2369,1.2363,1.2364,1.2373,1.2333,1.2327,1.2297,1.2354,1.2231,1.2227,1.2223,1.2176,1.2167,1.2159,0,0,0,0,0,1.2416,1.2374,1.2386,1.2381,1.2356,1.2329,1.2326,1.2339,1.2362,1.2342,1.2344,1.2364,1.2305,1.2329,1.2323,1.2291,1.2233,1.2228,1.2223,1.2179,1.2169,1.216,0,0,0,0,0,0,1.2371,1.2374,1.2388,1.2344,1.2336,1.2336,1.2311,1.2327,1.2312,1.2316,1.2333,1.2331,1.2289,1.2287,1.2314,1.2239,1.2272,1.2266,1.2241,1.2231,1.2223,1.2224,1.2352,0,0,0,0,0,1.2356,1.2335,1.2338,1.2299,1.2294,1.2303,1.2292,1.2303,1.2295,1.2291,1.229,1.2281,1.226,1.2246,1.2227,1.2176,1.2174,1.2152,1.2144,1.2137,1.213,1.2102,1.2091,1.2205,1.2205,1.2205,0,0,1.2325,1.2324,1.2309,1.229,1.2285,1.2261,1.23,1.2274,1.2256,1.2287,1.225,1.225,1.224,1.2195,1.2175,1.2192,1.2099,1.2131,1.2125,1.2123,1.2096,1.2085,1.2075,1.2202,1.2203,1.2203,0,0,1.2255,1.2253,1.2219,1.2214,1.2206,1.2212,1.2204,1.2202,1.2202,1.2166,1.2189,1.2168,1.2132,1.2124,1.2115,1.2042,1.2059,1.2035,1.1992,1.1963,1.1954,1.1946,1.1918,1.1908,1.2029,1.2029,1.2029,0,1.2216,1.2183,1.22,1.2171,1.2161,1.219,1.2155,1.2149,1.2135,1.2127,1.2146,1.2101,1.2097,1.2049,1.2032,1.2024,1.2014,1.2035,1.1955,1.1947,1.1939,1.1913,1.1902,1.2026,1.2027,1.2027,1.2027,0,1.2135,1.2111,1.2084,1.2071,1.2058,1.2027,1.2038,1.2023,1.2035,1.2038,1.2,1.1997,1.1977,1.1967,1.1978,1.192,1.1931,1.1952,1.1986,1.1925,1.19,1.189,1.2022,1.2023,1.2024,1.2025,0,0,1.2035,1.2031,1.2021,1.2015,1.2009,1.199,1.1959,1.1941,1.1927,1.1917,1.189,1.1859,1.1879,1.1868,1.1879,1.1855,1.1794,1.1879,1.1879,1.1861,1.1728,1.171,1.1698,1.1807,1.1805,1.1804,1.1728,0,1.1964,1.1912,1.1926,1.1874,1.1851,1.1878,1.1851,1.1843,1.1846,1.1826,1.1829,1.1806,1.1835,1.1829,1.1806,1.1807,1.1767,1.1813,1.178,1.1779,1.1779,1.1686,1.1667,1.1596,1.1719,1.1717,1.1716,0,1.1875,1.1861,1.1806,1.1803,1.1794,1.177,1.1753,1.1735,1.1726,1.173,1.1718,1.1734,1.1702,1.1738,1.1693,1.1723,1.1711,1.171,1.1707,1.1703,1.1742,1.1676,1.1574,1.1562,1.1701,1.1702,1.1703,0,1.1804,1.1773,1.1736,1.173,1.1726,1.1708,1.1705,1.1699,1.1686,1.1672,1.1663,1.1645,1.1635,1.1619,1.1629,1.1655,1.1582,1.1619,1.1582,1.1582,1.1564,1.1564,1.1455,1.156,1.156,1.156,1.156,0,1.1723,1.1687,1.1704,1.1681,1.1642,1.1658,1.1619,1.1619,1.1613,1.159,1.1612,1.1589,1.1605,1.1582,1.159,1.155,1.1546,1.1547,1.1549,1.1543,1.1543,1.1534,1.1538,1.1557,1.1558,1.1558,1.1559,0,1.1637,1.1647,1.1608,1.1607,1.1606,1.1577,1.1576,1.1554,1.1559,1.1528,1.1522,1.1529,1.1504,1.1513,1.1486,1.1491,1.144,1.145,1.1443,1.1444,1.1406,1.1409,1.1286,1.127,1.1386,1.1385,1.1384,0,1.1583,1.1557,1.1553,1.154,1.1535,1.1513,1.1501,1.1516,1.1502,1.149,1.1468,1.1446,1.1428,1.1387,1.1389,1.1368,1.1376,1.1334,1.1373,1.1368,1.1372,1.1373,1.1369,1.1326,1.1324,1.1323,1.1322,0,1.1485,1.1492,1.1474,1.1456,1.1441,1.1428,1.1417,1.1405,1.1419,1.1402,1.1377,1.1364,1.1336,1.1313,1.1294,1.129,1.1307,1.1311,1.13,1.1294,1.129,1.1289,1.1419,1.1313,1.1314,1.1314,1.1315,1.1315,1.1412,1.139,1.1384,1.1362,1.1356,1.1345,1.1324,1.1326,1.1306,1.1285,1.1296,1.1266,1.1258,1.1235,1.1228,1.1204,1.122,1.1206,1.1202,1.1198,1.1192,1.1296,1.1201,1.1202,1.1202,1.1202,1.1202,0,1.1314,1.1312,1.1292,1.1276,1.1259,1.1279,1.1268,1.1251,1.1226,1.1217,1.1199,1.117,1.1147,1.1147,1.1126,1.1107,1.1114,1.11,1.1101,1.1099,1.118,1.119,1.1095,1.1095,1.1095,1.1095,1.1095,1.1095,1.1261,1.1223,1.1228,1.1187,1.1185,1.1157,1.1148,1.1138,1.1131,1.1097,1.1079,1.108,1.1074,1.1052,1.1031,1.1032,1.1022,1.1004,1.1008,1.1083,1.1094,1.1104,1.1113,1.1003,1.1003,1.0928,1.0927,1.0927]}]]